Regional Weather Roundup
Issued by NWS

Home | Current Version | Previous Version | Text Only | Print | Product List | Glossary On
Versions: 1 2 3 4 5 6 7 8 9 10 11 12 13 14 15 16 17 18 19 20 21 22 23 24 25 26 27 28 29 30 31 32 33 34 35 36 37 38 39 40 41 42 43 44 45 46 47 48 49 50
000
ASUS46 KLOX 171713
RWRCA

SOUTHERN CALIFORNIA WEATHER ROUNDUP
NATIONAL WEATHER SERVICE OXNARD CALIFORNIA
1000 AM PDT THU JUN 17 2021

NOTE: "FAIR" INDICATES FEW OR NO CLOUDS BELOW 12,000 FEET WITH NO
SIGNIFICANT WEATHER AND/OR OBSTRUCTIONS TO VISIBILITY.

  -  STATIONS PRECEEDED BY AN ASTERISK (*) ARE NOT NWS OR FAA
     STATIONS AND ARE NOT SUBJECT TO NWS AND FAA QUALITY CONTROL.

CAZ041-042-087-171800-
LA AND ORANGE COUNTY COASTAL AREAS


CITY           SKY/WX    TMP DP  RH WIND       PRES   REMARKS
L.A. DOWNTOWN  MOSUNNY   76  61  59 VRB3      29.82S
L.A. AIRPORT   PTSUNNY   71  61  70 SW5       29.83S
LONG BEACH     PTSUNNY   63  60  90 S7        29.84S

CITY           SKY/WX    TMP DP  RH WIND       PRES   REMARKS
AVALON           N/A     72 N/A N/A MISG        N/A
FULLERTON      MOSUNNY   69  61  75 CALM      29.83S
HAWTHORNE      MOSUNNY   73  61  65 E7        29.83S
*LEO CARRILLO    N/A     64  62  94 E7          N/A
*LOS ALAMITOS  PTSUNNY   68  64  89 SE3       29.85R FOG
SANTA ANA      MOSUNNY   71  61  70 SW9       29.84R
STA MONICA APT MOSUNNY   71  62  73 SW9       29.83S
TORRANCE       MOSUNNY   73  63  68 NE9       29.84R
*UCLA            N/A     72  61  68 S5        29.80S

$$

CAZ547-548-048-171800-
LA COUNTY VALLEYS AND INLAND EMPIRE


CITY           SKY/WX    TMP DP  RH WIND       PRES   REMARKS
BURBANK        MOSUNNY   80  57  45 SE12      29.84R
VAN NUYS       MOSUNNY   87  56  34 SE3       29.82F

CITY           SKY/WX    TMP DP  RH WIND       PRES   REMARKS
CORONA AIRPORT MOSUNNY   82  62  50 W9        29.83F
*CHATSWORTH      N/A     87  60  39 E5        29.80S
CHINO          PTSUNNY   86  59  39 N3        29.83F
*CLAREMONT       N/A     87  59  38 S2          N/A
MARCH AFB      MOSUNNY   89  53  28 CALM      29.85S
*NORTHRIDGE      N/A     86  55  35 S2          N/A
ONTARIO        MOSUNNY   87  56  34 VRB6      29.83S
*PASADENA        N/A     75  68  78 E1          N/A
POMONA         SUNNY     81  59  47 SW9       29.85S
RIVERSIDE      MOSUNNY   85  57  38 W3        29.82F
SAN BERNARDINO MOSUNNY   86  54  32 NW3       29.84S
*SAN RAFAEL HI   N/A     74  59  59 NW9G33      N/A
*SAUGUS          N/A     86  57  36 S5          N/A
*WHITEMAN AP   SUNNY     81  57  44 CALM      29.87F
*WHITTIER HILL   N/A     72  63  73 SE6G32      N/A
*WOODLAND HILL   N/A     81  55  41 MISG        N/A

$$

CAZ054-055-171800-
LA AND SAN BERNARDINO COUNTY MOUNTAINS


CITY           SKY/WX    TMP DP  RH WIND       PRES   REMARKS
*ACTON           N/A     90  53  28 SW7         N/A
*BIG BEAR AIRP MOSUNNY   82  28  14 NE5       30.28F
*BIG PINES       N/A     86  31  14 CALM        N/A
*CHILAO          N/A     91  35  14 S14         N/A
SANDBERG       SUNNY     93  40  15 S7        30.08S
*WARM SPRINGS    N/A     93  49  21 CALM        N/A  HX  90

$$

CAZ028-029-059-060-099-171800-
ANTELOPE VALLEY AND SURROUNDING AREAS


CITY           SKY/WX    TMP DP  RH WIND       PRES   REMARKS
LANCASTER      SUNNY     95  41  15 CALM      29.89F HX  91
PALMDALE       SUNNY     94  42  16 S3        29.91S HX  90
*POPPY PARK      N/A    100  44  14 SW7         N/A  HX  96

CITY           SKY/WX    TMP DP  RH WIND       PRES   REMARKS
29 PALMS       SUNNY    100  30   8 CALM      29.90F HX  94
BARSTOW/DAGGET SUNNY    102  37  10 W8        29.83F HX  96
BISHOP         PTSUNNY   90  33  13 CALM      30.03F
CHINA LAKE     MOSUNNY  100  33   9 VRB3      29.87S HX  94
EDWARDS AFB    MOSUNNY   89  38  17 CALM      29.88R
MOJAVE         SUNNY     95  37  13 CALM      29.93S HX  90
NEEDLES        SUNNY    108  42  10 CALM      29.72F HX 102
VICTORVILLE    SUNNY    N/A N/A N/A CALM      29.93F

$$

CAZ039-040-171800-
VENTURA AND SANTA BARBARA COUNTY COAST


CITY           SKY/WX    TMP DP  RH WIND       PRES   REMARKS
CAMARILLO      SUNNY     73  61  65 SW9       29.82S
NWS OXNARD       N/A     70  55  58 SE3       29.80S
OXNARD AIRPORT PTSUNNY   66  61  84 S8        29.83S
*POINT MUGU    PTSUNNY   65  61  87 S15       29.83S FOG
SBA APT/GOLETA CLOUDY    63  61  93 SE6       29.82F FOG
*SANTA BARBARA   N/A     67  60  79 CALM      29.90S
*VENTURA         N/A     66  63  88 MISG        N/A

$$

CAZ044-045-171800-
VENTURA COUNTY VALLEYS


CITY           SKY/WX    TMP DP  RH WIND       PRES   REMARKS
*SIMI VALLEY     N/A     91  62  37 E3        29.73F HX  91
*N 1000 OAKS     N/A     87  59  38 W3        29.80F
*TO CIVIC ARTS   N/A     90  50  25 MISG        N/A
*WESTLAKE VILL   N/A     87  50  27 CALM      29.76F
*OJAI            N/A     88  61  40 W2        29.72F
*FILLMORE        N/A     88  66  47 S2        29.83F HX  90

$$

CAZ053-171800-
VENTURA COUNTY MOUNTAINS


CITY           SKY/WX    TMP DP  RH WIND       PRES   REMARKS
*LOCKWOOD VLY    N/A     91  36  14 S3G9        N/A

$$

CAZ034-035-036-171800-
CENTRAL COAST AND SANTA YNEZ VALLEY


CITY           SKY/WX    TMP DP  RH WIND       PRES   REMARKS
SAN LUIS OBISP SUNNY     79  57  46 VRB6      29.81R
SANTA MARIA    SUNNY     76  54  46 W3        29.82F

CITY           SKY/WX    TMP DP  RH WIND       PRES   REMARKS
*CAL POLY SLO    N/A    N/A N/A N/A SE5         N/A
*LOMPOC        SUNNY     75  58  55 W6        29.81F
*PISMO BEACH     N/A     65  50  56 W2        29.80F
*SANTA YNEZ    FAIR      81  52  36 W5        29.82F

$$

CAZ037-038-051-171800-
SAN LUIS OBISPO COUNTY INTERIOR AND CUYAMA VALLEY


CITY           SKY/WX    TMP DP  RH WIND       PRES   REMARKS
*CUYAMA          N/A     86  49  27 CALM      29.73F
PASO ROBLES      N/A     86  43  22 MISG      29.83F

$$

CAZ032-033-061-171800-
SOUTHERN DESERTS


CITY           SKY/WX    TMP DP  RH WIND       PRES   REMARKS
BLYTHE         SUNNY    101  51  18 CALM      29.69F HX  98
IMPERIAL       SUNNY     97  64  33 W3        29.67F HX  99
PALM SPRINGS   MOSUNNY  103  51  17 CALM      29.73F HX 100
THERMAL        SUNNY    104  52  17 VRB5      29.66F HX 101

$$

ELSEWHERE ACROSS THE WESTERN UNITED STATES AND MEXICO


CITY           SKY/WX    TMP DP  RH WIND       PRES   REMARKS
DENVER, CO     MOSUNNY   94  41  16 NW7       30.11S HX  90
GRAND CANYON,  MOSUNNY   89  28  11 VRB7      30.25F
HONOLULU, HI   MOSUNNY   75  70  83 NE5       30.07R
KAHULUI, MAUI  MOSUNNY   75  66  73 NE14G21   30.05R
LAKE TAHOE, CA SUNNY     74  33  22 E3        30.22F
LAS VEGAS, NV  PTSUNNY  101  37  11 E9        29.87S HX  95
MAMMOTH LAKES, FAIR      73  34  23 CALM      30.32S
MEXICO CITY, M CLOUDY    64  48  55 NE9       30.27F
PHOENIX, AZ    MOSUNNY  103  47  15 SE7       29.75F HX  99
PORTLAND, OR   SUNNY     67  52  58 N5        30.18S
RENO, NV       MOSUNNY   78  29  16 CALM      30.11F
SALT LAKE CITY PTSUNNY   82  46  28 VRB5      30.10F
SAN DIEGO, CA  CLOUDY    67  61  81 SE5       29.86S FOG
SAN FRANCISCO, MOSUNNY   73  58  59 E3        29.83F
SAN JOSE, CA   MOSUNNY   78  56  46 NW3       29.83F
SEATTLE, WA    MOSUNNY   65  50  58 NW6       30.21S
TIJUANA, MEX   SUNNY     70  61  73 W6        29.87S HAZE

$$

STATION/POSITION TIME  TEMP    WIND        PRES    VSBY  WAVE
                       AIR SEA DIR/SP/G                  HT/PER
                 (UTC) (F)     (DEG/KT/KT) (MB)    (MI)  (FT/S)
WEST SANTA BARBA 1700   58     290/  2/  4 1010.2
EAST SANTA BARBA 1700   61     110/  4/  6 1010.7
SANTA MONICA BAY 1700   62     140/ 10/ 12 1010.4
SAN CLEMENTE BAS 1700   62     140/ 10/ 12 1010.0


USA.gov is the U.S. government's official web portal to all federal, state and local government web resources and services.